118  
ASUS43 KBIS 161510  
RWRBIS  
 
NWR BROADCAST TEXT  
NATIONAL WEATHER SERVICE BISMARCK ND  
1000 AM CDT WED AUG 16 2017  
 
NOTE: "FAIR" INDICATES FEW OR NO CLOUDS BELOW 12,000 FEET WITH NO  
SIGNIFICANT WEATHER AND/OR S TO VISIBILITY
.  
 
 
CITY SKY/WX TMP DP RH WIND PRES REMARKS
 
WILLISTON FOG 60 58 92 CALM 29.96S VSB 1/4  
MINOT FOG 59 58 96 NW7 29.93R VSB 1/4  
MINOT AFB FOG 58 58 100 NW5 29.92S VSB 1/4  
BISMARCK CLOUDY 64 59 83 N12 29.94R  
DICKINSON SUNNY 65 62 90 NW5 29.97R  
GARRISON N/A 59 59 100 N6 29.94R  
HETTINGER ARPT CLOUDY 66 61 84 NW10 29.99R  
JAMESTOWN CLOUDY 65 63 93 N6 29.85R FOG  
CARRINGTON CLOUDY 66 63 88 MISG 29.90R  
HAZEN CLOUDY 63 63 100 NW3 29.96S  
LINTON CLOUDY 64 57 77 N13 29.93R  
MANDAN CLOUDY 61 61 100 N9 29.95R  
RUGBY CLOUDY 63 63 100 N6 29.91R  
STANLEY FAIR 64 64 100 N6 29.99R  
TIOGA FAIR 64 64 100 CALM 29.98S  
WATFORD CITY N/A 59 59 100 CALM 29.96S FOG  

 
 
CITY SKY/WX TMP DP RH WIND PRES REMARKS
 
GRAND FORKS LGT RAIN 64 64 100 E8 29.85S FOG  
GRAND FORKS AF LGT RAIN 63 63 100 E5 29.86S  
DEVILS LAKE CLOUDY 64 62 93 NE9 29.89S  
FARGO CLOUDY 66 65 96 SE3 29.84S  
CANDO CLOUDY 64 64 100 N5 29.92S  
CAVALIER CLOUDY 63 63 100 CALM 29.88S FOG  
GRAFTON CLOUDY 63 63 100 E6 29.89S  
GWINNER CLOUDY 66 64 94 CALM 29.84R  
LANGDON CLOUDY 63 63 100 E7 29.91S  
ROLLA CLOUDY 61 61 100 NW6 29.93R  
WALHALLA FAIR 63 63 100 NW5 29.89S  

 
 
CITY SKY/WX TMP DP RH WIND PRES REMARKS
 
ABERDEEN CLOUDY 67 66 97 NW8 29.84R  
MOBRIDGE CLOUDY 65 60 84 N12 29.88S  
BUFFALO N/A 67 59 75 N5 29.94S  
RAPID CITY CLOUDY 64 55 72 N17 30.01R  
GLASGOW SUNNY 66 52 60 E6 29.93S  
SIDNEY CLOUDY 59 58 96 S3 29.96S FOG  
WOLF POINT SUNNY 63 52 67 E5 29.95S  
GLENDIVE SUNNY 68 56 65 S6 29.98R  
MILES CITY SUNNY 64 46 52 S6 29.97R  
BAKER SUNNY 65 58 78 E3 30.01R  

 
 
CITY SKY/WX TMP DP RH WIND PRES REMARKS
 
BILLINGS MOSUNNY 63 47 55 SW12 30.01R  
GREAT FALLS SUNNY 65 29 25 SW12 30.00S  
REGINA MOSUNNY 61 48 63 NW8 29.96R  
ESTEVAN SUNNY 64 57 77 VRB2 29.95S  

 
 
 
 
CLICK HERE TO GO TO PREVIOUS BULLETINS.

The Nexlab ND Page Main Text Page